| time (UTC) | temp F | wind direction | speed MPH | gust MPH | rain 1hr in | rain 24hr in | rain mn in | humidity % | barometer mb |
| 20260505234653 | 33 | 315 | 1.0 | 2.0 | 0.00 | 0.62 | 0.00 | 94 | 1011.9 |
| 20260505233818 | 33 | 0 | 2.0 | 4.0 | 0.00 | 0.62 | 0.00 | 94 | 1011.7 |
| 20260505232825 | 33 | 0 | 2.0 | 5.0 | 0.00 | 0.62 | 0.00 | 94 | 1011.6 |
| 20260505231839 | 33 | 338 | 3.0 | 6.0 | 0.00 | 0.62 | 0.00 | 94 | 1012.0 |
| 20260505230958 | 33 | 0 | 2.0 | 6.0 | 0.01 | 0.62 | 0.00 | 94 | 1011.6 |
| 20260505230018 | 33 | 338 | 2.0 | 4.0 | 0.01 | 0.63 | 0.00 | 94 | 1011.8 |
| 20260505225126 | 33 | 338 | 3.0 | 5.0 | 0.01 | 0.64 | 0.00 | 93 | 1011.8 |
| 20260505224318 | 33 | 0 | 3.0 | 7.0 | 0.01 | 0.65 | 0.00 | 93 | 1011.6 |
| 20260505223338 | 33 | 338 | 3.0 | 10.0 | 0.01 | 0.65 | 0.00 | 93 | 1011.0 |
| 20260505222431 | 33 | 0 | 5.0 | 12.0 | 0.01 | 0.65 | 0.00 | 93 | 1010.9 |
| 20260505221613 | 33 | 0 | 7.0 | 15.0 | 0.01 | 0.65 | 0.00 | 93 | 1011.0 |
| 20260505220633 | 34 | 0 | 6.0 | 14.0 | 0.01 | 0.64 | 0.00 | 93 | 1010.7 |
| 20260505215658 | 34 | 0 | 4.0 | 9.0 | 0.02 | 0.64 | 0.00 | 93 | 1010.6 |
| 20260505214748 | 35 | 0 | 7.0 | 16.0 | 0.04 | 0.64 | 0.00 | 93 | 1010.4 |
| 20260505213901 | 35 | 0 | 6.0 | 12.0 | 0.05 | 0.64 | 0.00 | 93 | 1010.2 |
| 20260505212033 | 35 | 0 | 5.0 | 13.0 | 0.07 | 0.64 | 0.00 | 93 | 1010.1 |
| 20260505211138 | 35 | 0 | 7.0 | 17.0 | 0.06 | 0.63 | 0.00 | 93 | 1010.4 |
| 20260505210243 | 34 | 0 | 5.0 | 11.0 | 0.06 | 0.62 | 0.00 | 93 | 1010.4 |
| 20260505205443 | 34 | 0 | 5.0 | 10.0 | 0.07 | 0.60 | 0.00 | 92 | 1010.2 |
| 20260505204458 | 34 | 0 | 3.0 | 11.0 | 0.07 | 0.60 | 0.00 | 92 | 1010.2 |
| 20260505203553 | 35 | 0 | 5.0 | 9.0 | 0.07 | 0.60 | 0.00 | 92 | 1010.4 |
| 20260505202701 | 35 | 0 | 4.0 | 9.0 | 0.07 | 0.59 | 0.00 | 91 | 1010.5 |
| 20260505201803 | 35 | 0 | 6.0 | 13.0 | 0.06 | 0.58 | 0.00 | 90 | 1010.5 |
| 20260505200819 | 38 | 0 | 5.0 | 11.0 | 0.07 | 0.58 | 0.00 | 91 | 1010.6 |
| 20260505200013 | 38 | 0 | 4.0 | 10.0 | 0.05 | 0.55 | 0.00 | 92 | 1010.4 |
| 20260505195041 | 39 | 0 | 2.0 | 5.0 | 0.05 | 0.54 | 0.00 | 92 | 1010.2 |
| 20260505194058 | 39 | 0 | 2.0 | 5.0 | 0.05 | 0.53 | 0.00 | 92 | 1010.3 |
| 20260505192227 | 39 | 338 | 2.0 | 5.0 | 0.04 | 0.52 | 0.00 | 92 | 1010.2 |
| 20260505191358 | 39 | 0 | 2.0 | 4.0 | 0.03 | 0.51 | 0.00 | 92 | 1009.8 |
| 20260505190533 | 39 | 45 | 2.0 | 5.0 | 0.03 | 0.51 | 0.00 | 92 | 1009.8 |
| 20260505185613 | 39 | 22 | 1.0 | 3.0 | 0.03 | 0.50 | 0.00 | 92 | 1009.7 |
| 20260505183021 | 39 | 22 | 1.0 | 2.0 | 0.03 | 0.48 | 0.00 | 93 | 1009.8 |
| 20260505182113 | 39 | 0 | 0.0 | 2.0 | 0.04 | 0.48 | 0.00 | 93 | 1010.1 |
| 20260505181138 | 38 | 338 | 1.0 | 3.0 | 0.04 | 0.48 | 0.00 | 93 | 1010.1 |
| 20260505180338 | 38 | 248 | 1.0 | 2.0 | 0.05 | 0.48 | 0.00 | 94 | 1010.2 |
| 20260505174653 | 37 | 90 | 1.0 | 3.0 | 0.04 | 0.47 | 0.00 | 93 | 1010.1 |
| 20260505173721 | 37 | 0 | 0.0 | 2.0 | 0.03 | 0.45 | 0.00 | 94 | 1010.1 |
| 20260505172733 | 37 | 22 | 1.0 | 2.0 | 0.03 | 0.45 | 0.00 | 93 | 1010.0 |
| 20260505171754 | 38 | 0 | 0.0 | 2.0 | 0.03 | 0.44 | 0.00 | 94 | 1010.4 |
| 20260505171316 | 38 | 248 | 1.0 | 3.0 | 0.02 | 0.43 | 0.00 | 94 | 1010.6 |
| 20260505170828 | 38 | 248 | 1.0 | 3.0 | 0.02 | 0.43 | 0.00 | 94 | 1010.6 |
| 20260505165923 | 37 | 248 | 1.0 | 3.0 | 0.02 | 0.43 | 0.00 | 94 | 1010.4 |
| 20260505164953 | 37 | 22 | 1.0 | 2.0 | 0.03 | 0.43 | 0.00 | 94 | 1010.1 |
| 20260505164058 | 37 | 22 | 1.0 | 2.0 | 0.02 | 0.42 | 0.00 | 94 | 1010.0 |
| 20260505163101 | 37 | 45 | 2.0 | 3.0 | 0.03 | 0.42 | 0.00 | 94 | 1010.1 |
| 20260505162158 | 37 | 0 | 1.0 | 4.0 | 0.03 | 0.42 | 0.00 | 94 | 1010.2 |
| 20260505161258 | 36 | 0 | 1.0 | 3.0 | 0.03 | 0.41 | 0.00 | 94 | 1010.1 |
| 20260505160433 | 36 | 0 | 1.0 | 2.0 | 0.03 | 0.41 | 0.00 | 94 | 1010.2 |
| 20260505152108 | 35 | 0 | 1.0 | 4.0 | 0.05 | 0.39 | 0.00 | 93 | 1010.2 |
| 20260505151213 | 35 | 338 | 1.0 | 3.0 | 0.05 | 0.38 | 0.00 | 93 | 1010.3 |
| 20260505150213 | 35 | 338 | 1.0 | 3.0 | 0.06 | 0.38 | 0.00 | 94 | 1010.1 |
| 20260505140118 | 34 | 0 | 2.0 | 4.0 | 0.05 | 0.32 | 0.00 | 93 | 1009.9 |
| 20260505123333 | 34 | 338 | 1.0 | 3.0 | 0.04 | 0.26 | 0.00 | 92 | 1008.9 |
| 20260505122358 | 34 | 0 | 2.0 | 5.0 | 0.05 | 0.26 | 0.00 | 93 | 1008.8 |
| 20260505120601 | 34 | 338 | 2.0 | 4.0 | 0.05 | 0.25 | 0.00 | 92 | 1008.7 |
| 20260505115709 | 34 | 0 | 4.0 | 7.0 | 0.05 | 0.24 | 0.00 | 92 | 1008.7 |
| 20260505114029 | 34 | 22 | 3.0 | 6.0 | 0.05 | 0.23 | 0.00 | 92 | 1008.4 |
| 20260505113123 | 34 | 22 | 3.0 | 7.0 | 0.04 | 0.22 | 0.00 | 92 | 1008.2 |
| 20260505112508 | 35 | 0 | 3.0 | 6.0 | 0.04 | 0.21 | 0.00 | 91 | 1008.1 |
| 20260505112227 | 35 | 0 | 3.0 | 6.0 | 0.04 | 0.21 | 0.00 | 91 | 1008.1 |
| 20260505111418 | 35 | 0 | 3.0 | 10.0 | 0.04 | 0.20 | 0.00 | 91 | 1007.9 |
| 20260505101748 | 38 | 0 | 6.0 | 14.0 | 0.03 | 0.16 | 0.00 | 91 | 1007.5 |
| 20260505100801 | 39 | 0 | 7.0 | 13.0 | 0.02 | 0.15 | 0.00 | 90 | 1007.1 |
| 20260505095941 | 41 | 0 | 6.0 | 15.0 | 0.01 | 0.14 | 0.00 | 92 | 1006.9 |
| 20260505095058 | 41 | 0 | 6.0 | 18.0 | 0.01 | 0.14 | 0.00 | 92 | 1006.7 |
| 20260505094118 | 41 | 0 | 6.0 | 14.0 | 0.01 | 0.14 | 0.00 | 91 | 1006.6 |
| 20260505092428 | 42 | 0 | 4.0 | 9.0 | 0.02 | 0.13 | 0.00 | 92 | 1006.3 |
| 20260505090609 | 42 | 0 | 7.0 | 12.0 | 0.03 | 0.13 | 0.00 | 91 | 1006.1 |
| 20260505085648 | 42 | 0 | 5.0 | 13.0 | 0.04 | 0.13 | 0.00 | 91 | 1006.2 |
| 20260505083758 | 43 | 0 | 7.0 | 16.0 | 0.03 | 0.12 | 0.00 | 90 | 1006.0 |
| 20260505082914 | 43 | 0 | 7.0 | 15.0 | 0.03 | 0.12 | 0.00 | 90 | 1005.8 |
| 20260505081836 | 43 | 0 | 6.0 | 14.0 | 0.01 | 0.10 | 0.00 | 89 | 1005.7 |
| 20260505081133 | 43 | 0 | 6.0 | 14.0 | 0.01 | 0.10 | 0.00 | 89 | 1005.7 |
| 20260505080143 | 43 | 0 | 8.0 | 16.0 | 0.00 | 0.09 | 0.00 | 88 | 1005.5 |
| 20260505075158 | 43 | 0 | 8.0 | 14.0 | 0.00 | 0.09 | 0.00 | 88 | 1005.7 |
| 20260505074333 | 44 | 0 | 7.0 | 16.0 | 0.00 | 0.09 | 0.00 | 87 | 1005.5 |
| 20260505073523 | 44 | 0 | 5.0 | 14.0 | 0.00 | 0.09 | 0.00 | 87 | 1005.7 |
| 20260505072628 | 44 | 0 | 8.0 | 17.0 | 0.00 | 0.09 | 0.00 | 86 | 1005.5 |
| 20260505071723 | 45 | 0 | 8.0 | 16.0 | 0.00 | 0.09 | 0.00 | 86 | 1005.6 |
| 20260505070841 | 45 | 0 | 7.0 | 16.0 | 0.00 | 0.09 | 0.00 | 86 | 1005.5 |
| 20260505070008 | 45 | 0 | 7.0 | 16.0 | 0.00 | 0.09 | 0.00 | 85 | 1005.5 |
| 20260505065043 | 46 | 0 | 7.0 | 14.0 | 0.00 | 0.09 | 0.00 | 86 | 1005.4 |
| 20260505064511 | 47 | 0 | 8.0 | 16.0 | 0.00 | 0.09 | 0.00 | 89 | 1005.2 |
| 20260505064233 | 47 | 0 | 8.0 | 16.0 | 0.00 | 0.09 | 0.00 | 89 | 1005.2 |
| 20260505063238 | 47 | 0 | 0.0 | 1.0 | 0.00 | 0.09 | 0.00 | 91 | 1004.8 |
| 20260505062510 | 47 | 0 | 0.0 | 0.0 | 0.00 | 0.09 | 0.00 | 91 | 1004.6 |
| 20260505062358 | 47 | 0 | 0.0 | 0.0 | 0.00 | 0.09 | 0.00 | 91 | 1004.6 |
| 20260505060438 | 46 | 0 | 0.0 | 1.0 | 0.00 | 0.09 | 0.00 | 90 | 1004.6 |
| 20260505055618 | 46 | 202 | 1.0 | 2.0 | 0.00 | 0.09 | 0.00 | 90 | 1004.6 |
| 20260505053911 | 46 | 0 | 0.0 | 1.0 | 0.00 | 0.09 | 0.00 | 90 | 1004.3 |
| 20260505052932 | 46 | 0 | 0.0 | 1.0 | 0.00 | 0.09 | 0.00 | 90 | 1004.2 |
| 20260505052033 | 47 | 0 | 0.0 | 1.0 | 0.00 | 0.09 | 0.00 | 90 | 1004.1 |
| 20260505051103 | 47 | 0 | 0.0 | 2.0 | 0.00 | 0.09 | 0.00 | 89 | 1004.0 |
| 20260505050143 | 47 | 180 | 1.0 | 2.0 | 0.00 | 0.09 | 0.00 | 89 | 1004.0 |
| 20260505041733 | 48 | 180 | 2.0 | 4.0 | 0.01 | 0.09 | 0.00 | 88 | 1004.1 |
| 20260505035853 | 49 | 202 | 2.0 | 6.0 | 0.03 | 0.09 | 0.00 | 87 | 1003.8 |
| 20260505035048 | 49 | 180 | 3.0 | 5.0 | 0.03 | 0.09 | 0.00 | 87 | 1003.8 |
| 20260505034244 | 49 | 225 | 2.0 | 4.0 | 0.04 | 0.09 | 0.00 | 87 | 1003.7 |
| 20260505033308 | 50 | 225 | 2.0 | 3.0 | 0.05 | 0.09 | 0.00 | 86 | 1003.8 |
| 20260505032314 | 50 | 180 | 2.0 | 5.0 | 0.05 | 0.09 | 0.00 | 86 | 1003.6 |
| 20260505031453 | 50 | 180 | 4.0 | 11.0 | 0.03 | 0.07 | 0.00 | 84 | 1003.3 |
| 20260505030453 | 51 | 202 | 3.0 | 6.0 | 0.02 | 0.06 | 0.00 | 83 | 1003.1 |
| 20260505025601 | 51 | 225 | 3.0 | 6.0 | 0.02 | 0.06 | 0.00 | 82 | 1003.1 |
| 20260505024648 | 51 | 248 | 5.0 | 10.0 | 0.01 | 0.05 | 0.00 | 80 | 1002.9 |
| 20260505022813 | 51 | 270 | 3.0 | 6.0 | 0.00 | 0.04 | 0.00 | 75 | 1002.8 |
| 20260505021933 | 51 | 270 | 4.0 | 6.0 | 0.00 | 0.04 | 0.00 | 74 | 1002.7 |
| 20260505021044 | 51 | 270 | 3.0 | 6.0 | 0.00 | 0.04 | 0.00 | 74 | 1002.6 |
| 20260505020108 | 51 | 292 | 3.0 | 7.0 | 0.00 | 0.04 | 0.00 | 74 | 1002.6 |
| 20260505015253 | 51 | 270 | 3.0 | 5.0 | 0.00 | 0.04 | 0.00 | 74 | 1002.6 |
| 20260505014321 | 52 | 270 | 3.0 | 8.0 | 0.00 | 0.04 | 0.00 | 74 | 1002.4 |
| 20260505012518 | 53 | 315 | 5.0 | 12.0 | 0.00 | 0.04 | 0.00 | 72 | 1002.3 |
| 20260505011601 | 53 | 315 | 4.0 | 13.0 | 0.00 | 0.04 | 0.00 | 71 | 1002.2 |
| 20260505004808 | 56 | 315 | 6.0 | 15.0 | 0.00 | 0.04 | 0.00 | 63 | 1002.1 |
| 20260505004033 | 56 | 0 | 6.0 | 13.0 | 0.00 | 0.04 | 0.00 | 63 | 1002.0 |
| 20260505003948 | 56 | 0 | 6.0 | 13.0 | 0.00 | 0.04 | 0.00 | 63 | 1002.0 |
| 20260505002948 | 56 | 338 | 2.0 | 5.0 | 0.00 | 0.04 | 0.00 | 65 | 1001.8 |
| 20260505001018 | 57 | 270 | 1.0 | 4.0 | 0.00 | 0.04 | 0.00 | 75 | 1001.5 |